Year,Month,Day,Hour,Minute,Value (Times are PST for temperature in C)
2023,05,18,08,25,18.30
2023,05,18,08,26,18.20
2023,05,18,08,27,18.20
2023,05,18,08,28,18.20
2023,05,18,08,29,18.20
2023,05,18,08,30,18.20
2023,05,18,08,31,18.20
2023,05,18,08,32,18.20
2023,05,18,08,33,18.20
2023,05,18,08,34,18.20
2023,05,18,08,35,18.20
2023,05,18,08,36,18.20
2023,05,18,08,37,18.20
2023,05,18,08,38,18.20
2023,05,18,08,39,18.20
2023,05,18,08,40,18.20
2023,05,18,08,41,18.20
2023,05,18,08,42,18.20
2023,05,18,08,43,18.20
2023,05,18,08,44,18.20
2023,05,18,08,45,18.20
2023,05,18,08,46,18.20
2023,05,18,08,47,18.20
2023,05,18,08,48,18.20
2023,05,18,08,49,18.20
2023,05,18,08,50,18.30
2023,05,18,08,51,18.30
2023,05,18,08,52,18.30
2023,05,18,08,53,18.30
2023,05,18,08,54,18.30
2023,05,18,08,55,18.40
2023,05,18,08,56,18.40
2023,05,18,08,57,18.50
2023,05,18,08,58,18.50
2023,05,18,08,59,18.60
2023,05,18,09,00,18.60
2023,05,18,09,01,18.60
2023,05,18,09,02,18.70
2023,05,18,09,03,18.80
2023,05,18,09,04,18.80
2023,05,18,09,05,18.80
2023,05,18,09,06,18.90
2023,05,18,09,07,18.90
2023,05,18,09,08,19.00
2023,05,18,09,09,19.00
2023,05,18,09,10,19.10
2023,05,18,09,11,19.20
2023,05,18,09,12,19.30
2023,05,18,09,13,19.40
2023,05,18,09,14,19.50
2023,05,18,09,15,19.60
2023,05,18,09,16,19.60
2023,05,18,09,17,19.60
2023,05,18,09,18,19.60
2023,05,18,09,19,19.70
2023,05,18,09,20,19.70
2023,05,18,09,21,19.70
2023,05,18,09,22,19.70
2023,05,18,09,23,19.80
2023,05,18,09,24,19.80
2023,05,18,09,25,19.90
2023,05,18,09,26,19.90
2023,05,18,09,27,19.90
2023,05,18,09,28,19.90
2023,05,18,09,29,19.90
2023,05,18,09,30,19.90
2023,05,18,09,31,19.90
2023,05,18,09,32,20.00
2023,05,18,09,33,20.10
2023,05,18,09,34,20.10
2023,05,18,09,35,20.20
2023,05,18,09,36,20.20
2023,05,18,09,37,20.30
2023,05,18,09,38,20.30
2023,05,18,09,39,20.40
2023,05,18,09,40,20.50
2023,05,18,09,41,20.60
2023,05,18,09,42,20.70
2023,05,18,09,43,20.80
2023,05,18,09,44,20.90
2023,05,18,09,45,21.10
2023,05,18,09,46,21.20
2023,05,18,09,47,21.20
2023,05,18,09,48,21.30
2023,05,18,09,49,21.40
2023,05,18,09,50,21.40
2023,05,18,09,51,21.40
2023,05,18,09,52,21.40
2023,05,18,09,53,21.40
2023,05,18,09,54,21.50
2023,05,18,09,55,21.50
2023,05,18,09,56,21.60
2023,05,18,09,57,21.60
2023,05,18,09,58,21.70
2023,05,18,09,59,21.70
2023,05,18,10,00,21.80
2023,05,18,10,01,21.80
2023,05,18,10,02,21.90
2023,05,18,10,03,22.00
2023,05,18,10,04,22.10
2023,05,18,10,05,22.10
2023,05,18,10,06,22.20
2023,05,18,10,07,22.20
2023,05,18,10,08,22.30
2023,05,18,10,09,22.30
2023,05,18,10,10,22.20
2023,05,18,10,11,22.20
2023,05,18,10,12,22.20
2023,05,18,10,13,22.20
2023,05,18,10,14,22.30
2023,05,18,10,15,22.30
2023,05,18,10,16,22.30
2023,05,18,10,17,22.30
2023,05,18,10,18,22.30
2023,05,18,10,19,22.30
2023,05,18,10,20,22.40
2023,05,18,10,21,22.40
2023,05,18,10,22,22.40
2023,05,18,10,23,22.40
2023,05,18,10,24,22.50
2023,05,18,10,25,22.40
2023,05,18,10,26,22.40
2023,05,18,10,27,22.40
2023,05,18,10,28,22.30
2023,05,18,10,29,22.40
2023,05,18,10,30,22.40
2023,05,18,10,31,22.50
2023,05,18,10,32,22.50
2023,05,18,10,33,22.60
2023,05,18,10,34,22.70
2023,05,18,10,35,22.70
2023,05,18,10,36,22.80
2023,05,18,10,37,22.70
2023,05,18,10,38,22.70
2023,05,18,10,39,22.70
2023,05,18,10,40,22.70
2023,05,18,10,41,22.70
2023,05,18,10,42,22.70
2023,05,18,10,43,22.70
2023,05,18,10,44,22.70
2023,05,18,10,45,22.70
2023,05,18,10,46,22.80
2023,05,18,10,47,22.70
2023,05,18,10,48,22.60
2023,05,18,10,49,22.60
2023,05,18,10,50,22.60
2023,05,18,10,51,22.50
2023,05,18,10,52,22.60
2023,05,18,10,53,22.60
2023,05,18,10,54,22.70
2023,05,18,10,55,22.70
2023,05,18,10,56,22.80
2023,05,18,10,57,22.80
2023,05,18,10,58,22.80
2023,05,18,10,59,22.80
2023,05,18,11,00,22.80
2023,05,18,11,01,22.80
2023,05,18,11,02,22.70
2023,05,18,11,03,22.60
2023,05,18,11,04,22.60
2023,05,18,11,05,22.60
2023,05,18,11,06,22.50
2023,05,18,11,07,22.50
2023,05,18,11,08,22.40
2023,05,18,11,09,22.40
2023,05,18,11,10,22.40
2023,05,18,11,11,22.40
2023,05,18,11,12,22.50
2023,05,18,11,13,22.60
2023,05,18,11,14,22.60
2023,05,18,11,15,22.60
2023,05,18,11,16,22.60
2023,05,18,11,17,22.70
2023,05,18,11,18,22.70
2023,05,18,11,19,22.70
2023,05,18,11,20,22.80
2023,05,18,11,21,22.90
2023,05,18,11,22,23.00
2023,05,18,11,23,23.00
2023,05,18,11,24,23.10
2023,05,18,11,25,23.20
2023,05,18,11,26,23.30
2023,05,18,11,27,23.30
2023,05,18,11,28,23.40
2023,05,18,11,29,23.40
2023,05,18,11,30,23.50
2023,05,18,11,31,23.50
2023,05,18,11,32,23.60
2023,05,18,11,33,23.60
2023,05,18,11,34,23.70
2023,05,18,11,35,23.70
2023,05,18,11,36,23.70
2023,05,18,11,37,23.70
2023,05,18,11,38,23.70
2023,05,18,11,39,23.80
2023,05,18,11,40,23.80
2023,05,18,11,41,23.90
2023,05,18,11,42,23.90
2023,05,18,11,43,23.90
2023,05,18,11,44,24.00
2023,05,18,11,45,24.00
2023,05,18,11,46,24.00
2023,05,18,11,47,24.00
2023,05,18,11,48,23.90
2023,05,18,11,49,23.90
2023,05,18,11,50,23.90
2023,05,18,11,51,24.00
2023,05,18,11,52,24.00
2023,05,18,11,53,24.10
2023,05,18,11,54,24.00
2023,05,18,11,55,24.00
2023,05,18,11,56,24.00
2023,05,18,11,57,24.00
2023,05,18,11,58,23.90
2023,05,18,11,59,23.90
2023,05,18,12,00,23.90
2023,05,18,12,01,23.90
2023,05,18,12,02,23.90
2023,05,18,12,03,23.90
2023,05,18,12,04,24.00
2023,05,18,12,05,24.00
2023,05,18,12,06,24.00
2023,05,18,12,07,24.10
2023,05,18,12,08,24.20
2023,05,18,12,09,24.30
2023,05,18,12,10,24.30
2023,05,18,12,11,24.40
2023,05,18,12,12,24.40
2023,05,18,12,13,24.40
2023,05,18,12,14,24.40
2023,05,18,12,15,24.50
2023,05,18,12,16,24.50
2023,05,18,12,17,24.60
2023,05,18,12,18,24.60
2023,05,18,12,19,24.60
2023,05,18,12,20,24.60
2023,05,18,12,21,24.70
2023,05,18,12,22,24.80
2023,05,18,12,23,24.80
2023,05,18,12,24,24.80
2023,05,18,12,25,24.80
2023,05,18,12,26,24.80
2023,05,18,12,27,24.80
2023,05,18,12,28,24.70
2023,05,18,12,29,24.70
2023,05,18,12,30,24.70
2023,05,18,12,31,24.70
2023,05,18,12,32,24.60
2023,05,18,12,33,24.60
2023,05,18,12,34,24.60
2023,05,18,12,35,24.60
2023,05,18,12,36,24.70
2023,05,18,12,37,24.80
2023,05,18,12,38,24.80
2023,05,18,12,39,24.90
2023,05,18,12,40,25.00
2023,05,18,12,41,25.10
2023,05,18,12,42,25.10
2023,05,18,12,43,25.10
2023,05,18,12,44,25.10
2023,05,18,12,45,25.20
2023,05,18,12,46,25.20
2023,05,18,12,47,25.30
2023,05,18,12,48,25.30
2023,05,18,12,49,25.30
2023,05,18,12,50,25.30
2023,05,18,12,51,25.30
2023,05,18,12,52,25.30
2023,05,18,12,53,25.40
2023,05,18,12,54,25.40
2023,05,18,12,55,25.30
2023,05,18,12,56,25.20
2023,05,18,12,57,25.20
2023,05,18,12,58,25.20
2023,05,18,12,59,25.20
2023,05,18,13,00,25.30
2023,05,18,13,01,25.30
2023,05,18,13,02,25.40
2023,05,18,13,03,25.50
2023,05,18,13,04,25.50
2023,05,18,13,05,25.60
2023,05,18,13,06,25.50
2023,05,18,13,07,25.50
2023,05,18,13,08,25.50
2023,05,18,13,09,25.50
2023,05,18,13,10,25.50
2023,05,18,13,11,25.60
2023,05,18,13,12,25.60
2023,05,18,13,13,25.70
2023,05,18,13,14,25.70
2023,05,18,13,15,25.80
2023,05,18,13,16,25.80
2023,05,18,13,17,25.90
2023,05,18,13,18,26.00
2023,05,18,13,19,26.00
2023,05,18,13,20,26.00
2023,05,18,13,21,25.80
2023,05,18,13,22,25.80
2023,05,18,13,23,25.70
2023,05,18,13,24,25.70
2023,05,18,13,25,25.70
2023,05,18,13,26,25.70
2023,05,18,13,27,25.70
2023,05,18,13,28,25.70
2023,05,18,13,29,25.60
2023,05,18,13,30,25.60
2023,05,18,13,31,25.60
2023,05,18,13,32,25.50
2023,05,18,13,33,25.40
2023,05,18,13,34,25.40
2023,05,18,13,35,25.30
2023,05,18,13,36,25.30
2023,05,18,13,37,25.10
2023,05,18,13,38,25.10
2023,05,18,13,39,24.90
2023,05,18,13,40,24.80
2023,05,18,13,41,24.70
2023,05,18,13,42,24.70
2023,05,18,13,43,24.70
2023,05,18,13,44,24.70
2023,05,18,13,45,24.70
2023,05,18,13,46,24.90
2023,05,18,13,47,25.00
2023,05,18,13,48,25.20
2023,05,18,13,49,25.30
2023,05,18,13,50,25.50
2023,05,18,13,51,25.70
2023,05,18,13,52,25.90
2023,05,18,13,53,26.00
2023,05,18,13,54,26.10
2023,05,18,13,55,26.10
2023,05,18,13,56,26.10
2023,05,18,13,57,26.10
2023,05,18,13,58,26.20
2023,05,18,13,59,26.30
2023,05,18,14,00,26.40
2023,05,18,14,01,26.40
2023,05,18,14,02,26.40
2023,05,18,14,03,26.50
2023,05,18,14,04,26.50
2023,05,18,14,05,26.40
2023,05,18,14,06,26.30
2023,05,18,14,07,26.20
2023,05,18,14,08,26.00
2023,05,18,14,09,25.80
2023,05,18,14,10,25.60
2023,05,18,14,11,25.40
2023,05,18,14,12,25.20
2023,05,18,14,13,25.00
2023,05,18,14,14,24.80
2023,05,18,14,15,24.70
2023,05,18,14,16,24.60
2023,05,18,14,17,24.50
2023,05,18,14,18,24.40
2023,05,18,14,19,24.40
2023,05,18,14,20,24.40
2023,05,18,14,21,24.40
2023,05,18,14,22,24.40
2023,05,18,14,23,24.50
2023,05,18,14,24,24.60
2023,05,18,14,25,24.70
2023,05,18,14,26,24.80
2023,05,18,14,27,25.00
2023,05,18,14,28,25.10
2023,05,18,14,29,25.20
2023,05,18,14,30,25.30
2023,05,18,14,31,25.40
2023,05,18,14,32,25.60
2023,05,18,14,33,25.80
2023,05,18,14,34,26.00
2023,05,18,14,35,26.10
2023,05,18,14,36,26.30
2023,05,18,14,37,26.40
2023,05,18,14,38,26.60
2023,05,18,14,39,26.70
2023,05,18,14,40,26.70
2023,05,18,14,41,26.70
2023,05,18,14,42,26.60
2023,05,18,14,43,26.50
2023,05,18,14,44,26.40
2023,05,18,14,45,26.40
2023,05,18,14,46,26.30
2023,05,18,14,47,26.20
2023,05,18,14,48,26.10
2023,05,18,14,49,26.00
2023,05,18,14,50,26.00
2023,05,18,14,51,25.90
2023,05,18,14,52,25.80
2023,05,18,14,53,25.80
2023,05,18,14,54,25.80
2023,05,18,14,55,25.70
2023,05,18,14,56,25.80
2023,05,18,14,57,25.80
2023,05,18,14,58,25.90
2023,05,18,14,59,26.00
2023,05,18,15,00,26.10
2023,05,18,15,01,26.20
2023,05,18,15,02,26.20
2023,05,18,15,03,26.30
2023,05,18,15,04,26.30
2023,05,18,15,05,26.40
2023,05,18,15,06,26.40
2023,05,18,15,07,26.40
2023,05,18,15,08,26.50
2023,05,18,15,09,26.50
2023,05,18,15,10,26.40
2023,05,18,15,11,26.40
2023,05,18,15,12,26.40
2023,05,18,15,13,26.40
2023,05,18,15,14,26.40
2023,05,18,15,15,26.40
2023,05,18,15,16,26.40
2023,05,18,15,17,26.40
2023,05,18,15,18,26.30
2023,05,18,15,19,26.30
2023,05,18,15,20,26.30
2023,05,18,15,21,26.30
2023,05,18,15,22,26.30
2023,05,18,15,23,26.30
2023,05,18,15,24,26.40
2023,05,18,15,25,26.60
2023,05,18,15,26,26.70
2023,05,18,15,27,26.90
2023,05,18,15,28,27.00
2023,05,18,15,29,27.10
2023,05,18,15,30,27.20
2023,05,18,15,31,27.20
2023,05,18,15,32,27.20
2023,05,18,15,33,27.20
2023,05,18,15,34,27.20
2023,05,18,15,35,27.20
2023,05,18,15,36,27.30
2023,05,18,15,37,27.30
2023,05,18,15,38,27.40
2023,05,18,15,39,27.40
2023,05,18,15,40,27.30
2023,05,18,15,41,27.30
2023,05,18,15,42,27.30
2023,05,18,15,43,27.40
2023,05,18,15,44,27.50
2023,05,18,15,45,27.60
2023,05,18,15,46,27.70
2023,05,18,15,47,27.70
2023,05,18,15,48,27.60
2023,05,18,15,49,27.60
2023,05,18,15,50,27.70
2023,05,18,15,51,27.80
2023,05,18,15,52,27.90
2023,05,18,15,53,28.00
2023,05,18,15,54,28.10
2023,05,18,15,55,28.20
2023,05,18,15,56,28.30
2023,05,18,15,57,28.40
2023,05,18,15,58,28.40
2023,05,18,15,59,28.40
2023,05,18,16,00,28.40
2023,05,18,16,01,28.40
2023,05,18,16,02,28.40
2023,05,18,16,03,28.40
2023,05,18,16,04,28.50
2023,05,18,16,05,28.40
2023,05,18,16,06,28.30
2023,05,18,16,07,28.30
2023,05,18,16,08,28.30
2023,05,18,16,09,28.30
2023,05,18,16,10,28.30
2023,05,18,16,11,28.30
2023,05,18,16,12,28.20
2023,05,18,16,13,28.20
2023,05,18,16,14,28.20
2023,05,18,16,15,28.30
2023,05,18,16,16,28.20
2023,05,18,16,17,28.20
2023,05,18,16,18,28.20
2023,05,18,16,19,28.20
2023,05,18,16,20,28.20
2023,05,18,16,21,28.20
2023,05,18,16,22,28.20
2023,05,18,16,23,28.10
2023,05,18,16,24,28.00
2023,05,18,16,25,27.90
2023,05,18,16,26,27.90
2023,05,18,16,27,27.90
2023,05,18,16,28,27.90
2023,05,18,16,29,27.90
2023,05,18,16,30,27.90
2023,05,18,16,31,27.90
2023,05,18,16,32,27.90
2023,05,18,16,33,28.00
2023,05,18,16,34,28.00
2023,05,18,16,35,28.10
2023,05,18,16,36,28.00
2023,05,18,16,37,28.00
2023,05,18,16,38,28.00
2023,05,18,16,39,28.00
2023,05,18,16,40,28.00
2023,05,18,16,41,27.90
2023,05,18,16,42,27.90
2023,05,18,16,43,27.90
2023,05,18,16,44,27.90
2023,05,18,16,45,27.90
2023,05,18,16,46,27.90
2023,05,18,16,47,27.90
2023,05,18,16,48,27.90
2023,05,18,16,49,27.90
2023,05,18,16,50,28.00
2023,05,18,16,51,28.10
2023,05,18,16,52,28.10
2023,05,18,16,53,28.10
2023,05,18,16,54,28.20
2023,05,18,16,55,28.10
2023,05,18,16,56,28.00
2023,05,18,16,57,28.00
2023,05,18,16,58,27.90
2023,05,18,16,59,27.90
2023,05,18,17,00,27.80
2023,05,18,17,01,27.70
2023,05,18,17,02,27.60
2023,05,18,17,03,27.40
2023,05,18,17,04,27.40
2023,05,18,17,05,27.40
2023,05,18,17,06,27.40
2023,05,18,17,07,27.40
2023,05,18,17,08,27.40
2023,05,18,17,09,27.40
2023,05,18,17,10,27.40
2023,05,18,17,11,27.30
2023,05,18,17,12,27.30
2023,05,18,17,13,27.20
2023,05,18,17,14,27.20
2023,05,18,17,15,27.10
2023,05,18,17,16,27.10
2023,05,18,17,17,27.10
2023,05,18,17,18,27.00
2023,05,18,17,19,27.00
2023,05,18,17,20,27.00
2023,05,18,17,21,27.00
2023,05,18,17,22,27.00
2023,05,18,17,23,27.00
2023,05,18,17,24,27.00
2023,05,18,17,25,27.00
2023,05,18,17,26,26.90
2023,05,18,17,27,26.90
2023,05,18,17,28,27.00
2023,05,18,17,29,26.90
2023,05,18,17,30,26.90
2023,05,18,17,31,26.90
2023,05,18,17,32,26.80
2023,05,18,17,33,26.70
2023,05,18,17,34,26.60
2023,05,18,17,35,26.60
2023,05,18,17,36,26.50
2023,05,18,17,37,26.50
2023,05,18,17,38,26.50
2023,05,18,17,39,26.40
2023,05,18,17,40,26.40
2023,05,18,17,41,26.40
2023,05,18,17,42,26.40
2023,05,18,17,43,26.40
2023,05,18,17,44,26.40
2023,05,18,17,45,26.30
2023,05,18,17,46,26.30
2023,05,18,17,47,26.30
2023,05,18,17,48,26.30
2023,05,18,17,49,26.20
2023,05,18,17,50,26.20
2023,05,18,17,51,26.20
2023,05,18,17,52,26.20
2023,05,18,17,53,26.20
2023,05,18,17,54,26.10
2023,05,18,17,55,26.10
2023,05,18,17,56,26.00
2023,05,18,17,57,25.90
2023,05,18,17,58,25.90
2023,05,18,17,59,25.80
2023,05,18,18,00,25.80
2023,05,18,18,01,25.80
2023,05,18,18,02,25.70
2023,05,18,18,03,25.70
2023,05,18,18,04,25.60
2023,05,18,18,05,25.60
2023,05,18,18,06,25.60
2023,05,18,18,07,25.70
2023,05,18,18,08,25.70
2023,05,18,18,09,25.70
2023,05,18,18,10,25.60
2023,05,18,18,11,25.50
2023,05,18,18,12,25.40
2023,05,18,18,13,25.30
2023,05,18,18,14,25.10
2023,05,18,18,15,25.10
2023,05,18,18,16,25.00
2023,05,18,18,17,24.90
2023,05,18,18,18,24.90
2023,05,18,18,19,24.90
2023,05,18,18,20,24.90
2023,05,18,18,21,24.80
2023,05,18,18,22,24.80
2023,05,18,18,23,24.80
2023,05,18,18,24,24.80
2023,05,18,18,25,24.70
2023,05,18,18,26,24.60
2023,05,18,18,27,24.50
2023,05,18,18,28,24.40
2023,05,18,18,29,24.40
2023,05,18,18,30,24.30
2023,05,18,18,31,24.20
2023,05,18,18,32,24.10
2023,05,18,18,33,24.00
2023,05,18,18,34,24.00
2023,05,18,18,35,23.90
2023,05,18,18,36,23.80
2023,05,18,18,37,23.80
2023,05,18,18,38,23.80
2023,05,18,18,39,23.80
2023,05,18,18,40,23.80
2023,05,18,18,41,23.80
2023,05,18,18,42,23.80
2023,05,18,18,43,23.80
2023,05,18,18,44,23.80
2023,05,18,18,45,23.70
2023,05,18,18,46,23.60
2023,05,18,18,47,23.60
2023,05,18,18,48,23.60
2023,05,18,18,49,23.70
2023,05,18,18,50,23.70
2023,05,18,18,51,23.70
2023,05,18,18,52,23.70
2023,05,18,18,53,23.70
2023,05,18,18,54,23.70
2023,05,18,18,55,23.70
2023,05,18,18,56,23.70
2023,05,18,18,57,23.70
2023,05,18,18,58,23.60
2023,05,18,18,59,23.50
2023,05,18,19,00,23.40
2023,05,18,19,01,23.40
2023,05,18,19,02,23.30
2023,05,18,19,03,23.30
2023,05,18,19,04,23.30
2023,05,18,19,05,23.30
2023,05,18,19,06,23.30
2023,05,18,19,07,23.30
2023,05,18,19,08,23.30
2023,05,18,19,09,23.30
2023,05,18,19,10,23.30
2023,05,18,19,11,23.20
2023,05,18,19,12,23.20
2023,05,18,19,13,23.10
2023,05,18,19,14,23.10
2023,05,18,19,15,23.00
2023,05,18,19,16,22.90
2023,05,18,19,17,22.90
2023,05,18,19,18,22.80
2023,05,18,19,19,22.70
2023,05,18,19,20,22.60
2023,05,18,19,21,22.50
2023,05,18,19,22,22.40
2023,05,18,19,23,22.40
2023,05,18,19,24,22.30
2023,05,18,19,25,22.20
2023,05,18,19,26,22.20
2023,05,18,19,27,22.20
2023,05,18,19,28,22.10
2023,05,18,19,29,22.10
2023,05,18,19,30,22.10
2023,05,18,19,31,22.10
2023,05,18,19,32,22.10
2023,05,18,19,33,22.10
2023,05,18,19,34,22.10
2023,05,18,19,35,22.10
2023,05,18,19,36,22.10
2023,05,18,19,37,22.10
2023,05,18,19,38,22.20
2023,05,18,19,39,22.20
2023,05,18,19,40,22.20
2023,05,18,19,41,22.20
2023,05,18,19,42,22.20
2023,05,18,19,43,22.20
2023,05,18,19,44,22.30
2023,05,18,19,45,22.30
2023,05,18,19,46,22.30
2023,05,18,19,47,22.30
2023,05,18,19,48,22.30
2023,05,18,19,49,22.30
2023,05,18,19,50,22.30
2023,05,18,19,51,22.30
2023,05,18,19,52,22.30
2023,05,18,19,53,22.30
2023,05,18,19,54,22.30
2023,05,18,19,55,22.30
2023,05,18,19,56,22.30
2023,05,18,19,57,22.30
2023,05,18,19,58,22.30
2023,05,18,19,59,22.30
2023,05,18,20,00,22.30
